Year,Month,Day,Hour,Minute,Value (Times are PST for windgust in km/hr)
2016,10,14,00,00,19.30
2016,10,14,00,01,22.50
2016,10,14,00,02,20.90
2016,10,14,00,03,12.90
2016,10,14,00,04,14.50
2016,10,14,00,05,11.30
2016,10,14,00,06,17.70
2016,10,14,00,07,11.30
2016,10,14,00,08,11.30
2016,10,14,00,09,14.50
2016,10,14,00,10,16.10
2016,10,14,00,11,17.70
2016,10,14,00,12,16.10
2016,10,14,00,13,14.50
2016,10,14,00,14,14.50
2016,10,14,00,15,14.50
2016,10,14,00,16,16.10
2016,10,14,00,17,11.30
2016,10,14,00,18,11.30
2016,10,14,00,19,17.70
2016,10,14,00,20,20.90
2016,10,14,00,21,14.50
2016,10,14,00,22,11.30
2016,10,14,00,23,25.70
2016,10,14,00,24,19.30
2016,10,14,00,25,20.90
2016,10,14,00,26,14.50
2016,10,14,00,27,17.70
2016,10,14,00,28,17.70
2016,10,14,00,29,19.30
2016,10,14,00,30,19.30
2016,10,14,00,31,19.30
2016,10,14,00,32,16.10
2016,10,14,00,33,22.50
2016,10,14,00,34,17.70
2016,10,14,00,35,22.50
2016,10,14,00,36,25.70
2016,10,14,00,37,24.20
2016,10,14,00,38,16.10
2016,10,14,00,39,14.50
2016,10,14,00,40,22.50
2016,10,14,00,41,25.70
2016,10,14,00,42,19.30
2016,10,14,00,43,19.30
2016,10,14,00,44,19.30
2016,10,14,00,45,22.50
2016,10,14,00,46,29.00
2016,10,14,00,47,14.50
2016,10,14,00,48,22.50
2016,10,14,00,49,27.40
2016,10,14,00,50,16.10
2016,10,14,00,51,25.70
2016,10,14,00,52,25.70
2016,10,14,00,53,25.70
2016,10,14,00,54,32.20
2016,10,14,00,55,24.20
2016,10,14,00,56,24.20
2016,10,14,00,57,22.50
2016,10,14,00,58,17.70
2016,10,14,00,59,27.40
2016,10,14,01,00,29.00
2016,10,14,01,01,22.50
2016,10,14,01,02,27.40
2016,10,14,01,03,25.70
2016,10,14,01,04,27.40
2016,10,14,01,05,30.60
2016,10,14,01,06,16.10
2016,10,14,01,07,22.50
2016,10,14,01,08,17.70
2016,10,14,01,09,29.00
2016,10,14,01,10,25.70
2016,10,14,01,11,33.80
2016,10,14,01,12,29.00
2016,10,14,01,13,20.90
2016,10,14,01,14,27.40
2016,10,14,01,15,32.20
2016,10,14,01,16,25.70
2016,10,14,01,17,30.60
2016,10,14,01,18,27.40
2016,10,14,01,19,22.50
2016,10,14,01,20,24.20
2016,10,14,01,21,19.30
2016,10,14,01,22,22.50
2016,10,14,01,23,22.50
2016,10,14,01,24,20.90
2016,10,14,01,25,25.70
2016,10,14,01,26,32.20
2016,10,14,01,27,20.90
2016,10,14,01,28,14.50
2016,10,14,01,29,20.90
2016,10,14,01,30,17.70
2016,10,14,01,31,20.90
2016,10,14,01,32,17.70
2016,10,14,01,33,27.40
2016,10,14,01,34,19.30
2016,10,14,01,35,22.50
2016,10,14,01,36,25.70
2016,10,14,01,37,24.20
2016,10,14,01,38,19.30
2016,10,14,01,39,22.50
2016,10,14,01,40,27.40
2016,10,14,01,41,25.70
2016,10,14,01,42,25.70
2016,10,14,01,43,19.30
2016,10,14,01,44,17.70
2016,10,14,01,45,19.30
2016,10,14,01,46,20.90
2016,10,14,01,47,17.70
2016,10,14,01,48,17.70
2016,10,14,01,49,20.90
2016,10,14,01,50,16.10
2016,10,14,01,51,24.20
2016,10,14,01,52,19.30
2016,10,14,01,53,16.10
2016,10,14,01,54,16.10
2016,10,14,01,55,20.90
2016,10,14,01,56,20.90
2016,10,14,01,57,25.70
2016,10,14,01,58,19.30
2016,10,14,01,59,24.20
2016,10,14,02,00,19.30
2016,10,14,02,01,22.50
2016,10,14,02,02,16.10
2016,10,14,02,03,12.90
2016,10,14,02,04,16.10
2016,10,14,02,05,17.70
2016,10,14,02,06,16.10
2016,10,14,02,07,11.30
2016,10,14,02,08,16.10
2016,10,14,02,09,11.30
2016,10,14,02,10,14.50
2016,10,14,02,11,17.70
2016,10,14,02,12,17.70
2016,10,14,02,13,16.10
2016,10,14,02,14,16.10
2016,10,14,02,15,14.50
2016,10,14,02,16,14.50
2016,10,14,02,17,17.70
2016,10,14,02,18,14.50
2016,10,14,02,19,12.90
2016,10,14,02,20,17.70
2016,10,14,02,21,19.30
2016,10,14,02,22,19.30
2016,10,14,02,23,14.50
2016,10,14,02,24,16.10
2016,10,14,02,25,14.50
2016,10,14,02,26,19.30
2016,10,14,02,27,20.90
2016,10,14,02,28,20.90
2016,10,14,02,29,19.30
2016,10,14,02,30,20.90
2016,10,14,02,31,12.90
2016,10,14,02,32,9.60
2016,10,14,02,33,16.10
2016,10,14,02,34,17.70
2016,10,14,02,35,16.10
2016,10,14,02,36,17.70
2016,10,14,02,37,16.10
2016,10,14,02,38,16.10
2016,10,14,02,39,14.50
2016,10,14,02,40,14.50
2016,10,14,02,41,16.10
2016,10,14,02,42,17.70
2016,10,14,02,43,11.30
2016,10,14,02,44,17.70
2016,10,14,02,45,16.10
2016,10,14,02,46,16.10
2016,10,14,02,47,14.50
2016,10,14,02,48,17.70
2016,10,14,02,49,17.70
2016,10,14,02,50,14.50
2016,10,14,02,51,16.10
2016,10,14,02,52,14.50
2016,10,14,02,53,17.70
2016,10,14,02,54,16.10
2016,10,14,02,55,19.30
2016,10,14,02,56,25.70
2016,10,14,02,57,20.90
2016,10,14,02,58,17.70
2016,10,14,02,59,9.60
2016,10,14,03,00,14.50
2016,10,14,03,01,11.30
2016,10,14,03,02,14.50
2016,10,14,03,03,17.70
2016,10,14,03,04,19.30
2016,10,14,03,05,19.30
2016,10,14,03,06,19.30
2016,10,14,03,07,16.10
2016,10,14,03,08,17.70
2016,10,14,03,09,20.90
2016,10,14,03,10,19.30
2016,10,14,03,11,17.70
2016,10,14,03,12,17.70
2016,10,14,03,13,22.50
2016,10,14,03,14,16.10
2016,10,14,03,15,17.70
2016,10,14,03,16,16.10
2016,10,14,03,17,17.70
2016,10,14,03,18,19.30
2016,10,14,03,19,11.30
2016,10,14,03,20,12.90
2016,10,14,03,21,14.50
2016,10,14,03,22,20.90
2016,10,14,03,23,19.30
2016,10,14,03,24,17.70
2016,10,14,03,25,19.30
2016,10,14,03,26,29.00
2016,10,14,03,27,20.90
2016,10,14,03,28,17.70
2016,10,14,03,29,17.70
2016,10,14,03,30,24.20
2016,10,14,03,31,11.30
2016,10,14,03,32,16.10
2016,10,14,03,33,14.50
2016,10,14,03,34,16.10
2016,10,14,03,35,16.10
2016,10,14,03,36,19.30
2016,10,14,03,37,9.60
2016,10,14,03,38,9.60
2016,10,14,03,39,19.30
2016,10,14,03,40,9.60
2016,10,14,03,41,17.70
2016,10,14,03,42,16.10
2016,10,14,03,43,14.50
2016,10,14,03,44,19.30
2016,10,14,03,45,14.50
2016,10,14,03,46,14.50
2016,10,14,03,47,16.10
2016,10,14,03,48,16.10
2016,10,14,03,49,9.60
2016,10,14,03,50,9.60
2016,10,14,03,51,14.50
2016,10,14,03,52,9.60
2016,10,14,03,53,14.50
2016,10,14,03,54,14.50
2016,10,14,03,55,9.60
2016,10,14,03,56,9.60
2016,10,14,03,57,9.60
2016,10,14,03,58,9.60
2016,10,14,03,59,8.10
2016,10,14,04,00,9.60
2016,10,14,04,01,6.40
2016,10,14,04,02,8.10
2016,10,14,04,03,8.10
2016,10,14,04,04,8.10
2016,10,14,04,05,9.60
2016,10,14,04,06,9.60
2016,10,14,04,07,9.60
2016,10,14,04,08,6.40
2016,10,14,04,09,9.60
2016,10,14,04,10,8.10
2016,10,14,04,11,8.10
2016,10,14,04,12,8.10
2016,10,14,04,13,9.60
2016,10,14,04,14,11.30
2016,10,14,04,15,8.10
2016,10,14,04,16,8.10
2016,10,14,04,17,8.10
2016,10,14,04,18,9.60
2016,10,14,04,19,8.10
2016,10,14,04,20,8.10
2016,10,14,04,21,8.10
2016,10,14,04,22,9.60
2016,10,14,04,23,6.40
2016,10,14,04,24,4.80
2016,10,14,04,25,6.40
2016,10,14,04,26,6.40
2016,10,14,04,27,4.80
2016,10,14,04,28,3.20
2016,10,14,04,29,3.20
2016,10,14,04,30,6.40
2016,10,14,04,31,8.10
2016,10,14,04,32,8.10
2016,10,14,04,33,8.10
2016,10,14,04,34,8.10
2016,10,14,04,35,9.60
2016,10,14,04,36,9.60
2016,10,14,04,37,8.10
2016,10,14,04,38,14.50
2016,10,14,04,39,14.50
2016,10,14,04,40,8.10
2016,10,14,04,41,6.40
2016,10,14,04,42,1.60
2016,10,14,04,43,4.80
2016,10,14,04,44,3.20
2016,10,14,04,45,1.60
2016,10,14,04,46,4.80
2016,10,14,04,47,4.80
2016,10,14,04,48,6.40
2016,10,14,04,49,6.40
2016,10,14,04,50,9.60
2016,10,14,04,51,9.60
2016,10,14,04,52,6.40
2016,10,14,04,53,3.20
2016,10,14,04,54,1.60
2016,10,14,04,55,6.40
2016,10,14,04,56,6.40
2016,10,14,04,57,6.40
2016,10,14,04,58,6.40
2016,10,14,04,59,4.80
2016,10,14,05,00,4.80
2016,10,14,05,01,4.80
2016,10,14,05,03,1.60
2016,10,14,05,04,4.80
2016,10,14,05,05,4.80
2016,10,14,05,06,4.80
2016,10,14,05,07,4.80
2016,10,14,05,08,3.20
2016,10,14,05,09,1.60
2016,10,14,05,10,1.60
2016,10,14,05,11,3.20
2016,10,14,05,12,1.60
2016,10,14,05,13,1.60
2016,10,14,05,14,6.40
2016,10,14,05,15,6.40
2016,10,14,05,16,4.80
2016,10,14,05,17,4.80
2016,10,14,05,18,4.80
2016,10,14,05,19,3.20
2016,10,14,05,20,3.20
2016,10,14,05,21,3.20
2016,10,14,05,22,1.60
2016,10,14,05,23,6.40
2016,10,14,05,24,6.40
2016,10,14,05,25,3.20
2016,10,14,05,26,8.10
2016,10,14,05,27,4.80
2016,10,14,05,28,4.80
2016,10,14,05,29,3.20
2016,10,14,05,30,4.80
2016,10,14,05,31,8.10
2016,10,14,05,32,9.60
2016,10,14,05,33,12.90
2016,10,14,05,34,14.50
2016,10,14,05,35,14.50
2016,10,14,05,36,14.50
2016,10,14,05,37,9.60
2016,10,14,05,38,6.40
2016,10,14,05,39,4.80
2016,10,14,05,40,6.40
2016,10,14,05,41,4.80
2016,10,14,05,42,4.80
2016,10,14,05,43,1.60
2016,10,14,05,44,3.20
2016,10,14,05,45,8.10
2016,10,14,05,46,11.30
2016,10,14,05,47,11.30
2016,10,14,05,48,12.90
2016,10,14,05,49,9.60
2016,10,14,05,50,9.60
2016,10,14,05,51,14.50
2016,10,14,05,52,9.60
2016,10,14,05,53,9.60
2016,10,14,05,54,9.60
2016,10,14,05,55,11.30
2016,10,14,05,56,11.30
2016,10,14,05,57,12.90
2016,10,14,05,58,17.70
2016,10,14,05,59,20.90
2016,10,14,06,00,11.30
2016,10,14,06,01,17.70
2016,10,14,06,02,16.10
2016,10,14,06,03,17.70
2016,10,14,06,04,19.30
2016,10,14,06,05,20.90
2016,10,14,06,06,22.50
2016,10,14,06,07,22.50
2016,10,14,06,08,20.90
2016,10,14,06,09,17.70
2016,10,14,06,10,16.10
2016,10,14,06,11,14.50
2016,10,14,06,12,17.70
2016,10,14,06,13,16.10
2016,10,14,06,14,11.30
2016,10,14,06,15,12.90
2016,10,14,06,16,11.30
2016,10,14,06,17,12.90
2016,10,14,06,18,16.10
2016,10,14,06,19,11.30
2016,10,14,06,20,8.10
2016,10,14,06,21,9.60
2016,10,14,06,22,9.60
2016,10,14,06,23,11.30
2016,10,14,06,24,9.60
2016,10,14,06,25,9.60
2016,10,14,06,26,9.60
2016,10,14,06,27,9.60
2016,10,14,06,28,14.50
2016,10,14,06,29,11.30
2016,10,14,06,30,11.30
2016,10,14,06,31,11.30
2016,10,14,06,32,6.40
2016,10,14,06,33,9.60
2016,10,14,06,34,9.60
2016,10,14,06,35,14.50
2016,10,14,06,36,16.10
2016,10,14,06,37,9.60
2016,10,14,06,38,11.30
2016,10,14,06,39,14.50
2016,10,14,06,40,11.30
2016,10,14,06,41,16.10
2016,10,14,06,42,16.10
2016,10,14,06,43,17.70
2016,10,14,06,44,17.70
2016,10,14,06,45,9.60
2016,10,14,06,46,12.90
2016,10,14,06,47,11.30
2016,10,14,06,48,11.30
2016,10,14,06,49,9.60
2016,10,14,06,50,11.30
2016,10,14,06,51,8.10
2016,10,14,06,52,6.40
2016,10,14,06,53,9.60
2016,10,14,06,54,9.60
2016,10,14,06,55,9.60
2016,10,14,06,56,8.10
2016,10,14,06,57,9.60
2016,10,14,06,58,16.10
2016,10,14,06,59,9.60
2016,10,14,07,00,6.40
2016,10,14,07,01,8.10
2016,10,14,07,02,6.40
2016,10,14,07,03,4.80
2016,10,14,07,04,4.80
2016,10,14,07,05,4.80
2016,10,14,07,06,8.10
2016,10,14,07,07,16.10
2016,10,14,07,08,16.10
2016,10,14,07,09,16.10
2016,10,14,07,10,14.50
2016,10,14,07,11,11.30
2016,10,14,07,12,12.90
2016,10,14,07,13,8.10
2016,10,14,07,14,16.10
2016,10,14,07,15,11.30
2016,10,14,07,16,8.10
2016,10,14,07,17,8.10
2016,10,14,07,18,8.10
2016,10,14,07,19,3.20
2016,10,14,07,20,6.40
2016,10,14,07,21,6.40
2016,10,14,07,22,9.60
2016,10,14,07,23,11.30
2016,10,14,07,24,9.60
2016,10,14,07,25,9.60
2016,10,14,07,26,11.30
2016,10,14,07,27,9.60
2016,10,14,07,28,6.40
2016,10,14,07,29,4.80
2016,10,14,07,30,4.80
2016,10,14,07,31,4.80
2016,10,14,07,32,6.40
2016,10,14,07,33,4.80
2016,10,14,07,34,1.60
2016,10,14,07,35,1.60
2016,10,14,07,37,1.60
2016,10,14,07,38,3.20
2016,10,14,07,39,3.20
2016,10,14,07,40,8.10
2016,10,14,07,41,11.30
2016,10,14,07,42,11.30
2016,10,14,07,43,12.90
2016,10,14,07,44,14.50
2016,10,14,07,45,9.60
2016,10,14,07,46,6.40
2016,10,14,07,47,6.40
2016,10,14,07,48,6.40
2016,10,14,07,49,11.30
2016,10,14,07,50,11.30
2016,10,14,07,51,14.50
2016,10,14,07,52,16.10
2016,10,14,07,53,17.70
2016,10,14,07,54,14.50
2016,10,14,07,55,20.90
2016,10,14,07,56,19.30
2016,10,14,07,57,19.30
2016,10,14,07,58,19.30
2016,10,14,07,59,16.10
2016,10,14,08,00,9.60
2016,10,14,08,01,16.10
2016,10,14,08,02,14.50
2016,10,14,08,03,8.10
2016,10,14,08,04,16.10
2016,10,14,08,05,6.40
2016,10,14,08,06,6.40
2016,10,14,08,07,11.30
2016,10,14,08,08,9.60
2016,10,14,08,09,16.10
2016,10,14,08,10,17.70
2016,10,14,08,11,6.40
2016,10,14,08,12,4.80
2016,10,14,08,13,4.80
2016,10,14,08,14,6.40
2016,10,14,08,15,6.40
2016,10,14,08,16,4.80
2016,10,14,08,17,8.10
2016,10,14,08,18,6.40
2016,10,14,08,19,4.80
2016,10,14,08,20,6.40
2016,10,14,08,21,8.10
2016,10,14,08,22,3.20
2016,10,14,08,23,3.20
2016,10,14,08,24,4.80
2016,10,14,08,25,8.10
2016,10,14,08,26,8.10
2016,10,14,08,27,6.40
2016,10,14,08,28,8.10
2016,10,14,08,29,6.40
2016,10,14,08,30,6.40
2016,10,14,08,31,8.10
2016,10,14,08,32,8.10
2016,10,14,08,33,6.40
2016,10,14,08,34,8.10
2016,10,14,08,35,11.30
2016,10,14,08,36,11.30
2016,10,14,08,37,14.50
2016,10,14,08,38,4.80
2016,10,14,08,39,1.60
2016,10,14,08,40,8.10
2016,10,14,08,41,9.60
2016,10,14,08,42,4.80
2016,10,14,08,43,8.10
2016,10,14,08,44,8.10
2016,10,14,08,45,6.40
2016,10,14,08,46,6.40
2016,10,14,08,47,6.40
2016,10,14,08,48,6.40
2016,10,14,08,49,8.10
2016,10,14,08,50,8.10
2016,10,14,08,51,6.40
2016,10,14,08,52,4.80
2016,10,14,08,53,3.20
2016,10,14,08,54,6.40
2016,10,14,08,55,9.60
2016,10,14,08,56,9.60
2016,10,14,08,57,6.40
2016,10,14,08,58,9.60
2016,10,14,08,59,8.10
2016,10,14,09,00,8.10
2016,10,14,09,01,4.80
2016,10,14,09,02,3.20
2016,10,14,09,03,3.20
2016,10,14,09,04,3.20
2016,10,14,09,05,4.80
2016,10,14,09,06,4.80
2016,10,14,09,07,3.20
2016,10,14,09,08,9.60
2016,10,14,09,09,8.10
2016,10,14,09,10,4.80
2016,10,14,09,11,4.80
2016,10,14,09,12,9.60
2016,10,14,09,13,8.10
2016,10,14,09,14,3.20
2016,10,14,09,15,3.20
2016,10,14,09,16,1.60
2016,10,14,09,18,3.20
2016,10,14,09,19,6.40
2016,10,14,09,20,6.40
2016,10,14,09,21,6.40
2016,10,14,09,22,6.40
2016,10,14,09,23,4.80
2016,10,14,09,24,4.80
2016,10,14,09,25,4.80
2016,10,14,09,26,4.80
2016,10,14,09,27,6.40
2016,10,14,09,28,6.40
2016,10,14,09,29,8.10
2016,10,14,09,30,6.40
2016,10,14,09,31,4.80
2016,10,14,09,32,6.40
2016,10,14,09,33,4.80
2016,10,14,09,34,6.40
2016,10,14,09,35,3.20
2016,10,14,09,36,4.80
2016,10,14,09,37,9.60
2016,10,14,09,38,8.10
2016,10,14,09,39,8.10
2016,10,14,09,40,11.30
2016,10,14,09,41,9.60
2016,10,14,09,42,9.60
2016,10,14,09,43,9.60
2016,10,14,09,44,8.10
2016,10,14,09,45,4.80
2016,10,14,09,46,9.60
2016,10,14,09,47,11.30
2016,10,14,09,48,8.10
2016,10,14,09,49,11.30
2016,10,14,09,50,11.30
2016,10,14,09,51,11.30
2016,10,14,09,52,8.10
2016,10,14,09,53,9.60
2016,10,14,09,54,8.10
2016,10,14,09,55,8.10
2016,10,14,09,56,9.60
2016,10,14,09,57,8.10
2016,10,14,09,58,8.10
2016,10,14,09,59,6.40
2016,10,14,10,00,6.40
2016,10,14,10,01,1.60
2016,10,14,10,02,3.20
2016,10,14,10,03,6.40
2016,10,14,10,04,6.40
2016,10,14,10,05,3.20
2016,10,14,10,06,1.60
2016,10,14,10,07,1.60
2016,10,14,10,08,1.60
2016,10,14,10,09,1.60
2016,10,14,10,10,9.60
2016,10,14,10,11,4.80
2016,10,14,10,12,4.80
2016,10,14,10,13,6.40
2016,10,14,10,14,3.20
2016,10,14,10,15,4.80
2016,10,14,10,16,9.60
2016,10,14,10,17,8.10
2016,10,14,10,18,8.10
2016,10,14,10,19,6.40
2016,10,14,10,20,4.80
2016,10,14,10,21,6.40
2016,10,14,10,22,6.40
2016,10,14,10,23,4.80
2016,10,14,10,24,3.20
2016,10,14,10,25,3.20
2016,10,14,10,26,4.80
2016,10,14,10,27,6.40
2016,10,14,10,28,8.10
2016,10,14,10,29,8.10
2016,10,14,10,30,11.30
2016,10,14,10,31,9.60
2016,10,14,10,32,9.60
2016,10,14,10,33,8.10
2016,10,14,10,34,3.20
2016,10,14,10,35,4.80
2016,10,14,10,36,4.80
2016,10,14,10,37,6.40
2016,10,14,10,38,9.60
2016,10,14,10,39,8.10
2016,10,14,10,40,6.40
2016,10,14,10,41,11.30
2016,10,14,10,42,9.60
2016,10,14,10,43,6.40
2016,10,14,10,44,8.10
2016,10,14,10,45,8.10
2016,10,14,10,46,6.40
2016,10,14,10,47,6.40
2016,10,14,10,48,9.60
2016,10,14,10,49,9.60
2016,10,14,10,50,8.10
2016,10,14,10,51,8.10
2016,10,14,10,52,8.10
2016,10,14,10,53,6.40
2016,10,14,10,54,9.60
2016,10,14,10,55,11.30
2016,10,14,10,56,6.40
2016,10,14,10,57,8.10
2016,10,14,10,58,4.80
2016,10,14,10,59,17.70
2016,10,14,11,00,14.50
2016,10,14,11,01,8.10
2016,10,14,11,02,3.20
2016,10,14,11,03,3.20
2016,10,14,11,04,14.50
2016,10,14,11,05,9.60
2016,10,14,11,06,4.80
2016,10,14,11,07,3.20
2016,10,14,11,08,3.20
2016,10,14,11,09,1.60
2016,10,14,11,10,4.80
2016,10,14,11,11,4.80
2016,10,14,11,12,1.60
2016,10,14,11,13,1.60
2016,10,14,11,15,1.60
2016,10,14,11,17,1.60
2016,10,14,11,18,3.20
2016,10,14,11,19,4.80
2016,10,14,11,20,8.10
2016,10,14,11,21,6.40
2016,10,14,11,22,4.80
2016,10,14,11,23,8.10
2016,10,14,11,24,6.40
2016,10,14,11,25,3.20
2016,10,14,11,26,11.30
2016,10,14,11,27,11.30
2016,10,14,11,28,4.80
2016,10,14,11,29,4.80
2016,10,14,11,30,8.10
2016,10,14,11,31,14.50
2016,10,14,11,32,9.60
2016,10,14,11,33,11.30
2016,10,14,11,34,8.10
2016,10,14,11,35,11.30
2016,10,14,11,36,19.30
2016,10,14,11,37,19.30
2016,10,14,11,38,17.70
2016,10,14,11,39,19.30
2016,10,14,11,40,25.70
2016,10,14,11,41,22.50
2016,10,14,11,42,20.90
2016,10,14,11,43,20.90
2016,10,14,11,44,17.70
2016,10,14,11,45,19.30
2016,10,14,11,46,19.30
2016,10,14,11,47,20.90
2016,10,14,11,48,17.70
2016,10,14,11,49,24.20
2016,10,14,11,50,25.70
2016,10,14,11,51,25.70
2016,10,14,11,52,19.30
2016,10,14,11,53,20.90
2016,10,14,11,54,24.20
2016,10,14,11,55,19.30
2016,10,14,11,56,14.50
2016,10,14,11,57,24.20
2016,10,14,11,58,24.20
2016,10,14,11,59,29.00
2016,10,14,12,00,20.90
2016,10,14,12,01,27.40
2016,10,14,12,02,19.30
2016,10,14,12,03,22.50
2016,10,14,12,04,16.10
2016,10,14,12,05,12.90
2016,10,14,12,06,17.70
2016,10,14,12,07,20.90
2016,10,14,12,08,22.50
2016,10,14,12,09,17.70
2016,10,14,12,10,24.20
2016,10,14,12,11,29.00
2016,10,14,12,12,20.90
2016,10,14,12,13,24.20
2016,10,14,12,14,22.50
2016,10,14,12,15,17.70
2016,10,14,12,16,12.90
2016,10,14,12,17,20.90
2016,10,14,12,18,17.70
2016,10,14,12,19,27.40
2016,10,14,12,20,22.50
2016,10,14,12,21,20.90
2016,10,14,12,22,24.20
2016,10,14,12,23,24.20
2016,10,14,12,24,30.60
2016,10,14,12,25,19.30
2016,10,14,12,26,22.50
2016,10,14,12,27,17.70
2016,10,14,12,28,25.70
2016,10,14,12,29,25.70
2016,10,14,12,30,19.30
2016,10,14,12,31,9.60
2016,10,14,12,32,22.50
2016,10,14,12,33,22.50
2016,10,14,12,34,25.70
2016,10,14,12,35,32.20
2016,10,14,12,36,25.70
2016,10,14,12,37,32.20
2016,10,14,12,38,25.70
2016,10,14,12,39,29.00
2016,10,14,12,40,20.90
2016,10,14,12,41,24.20
2016,10,14,12,42,24.20
2016,10,14,12,43,19.30
2016,10,14,12,44,17.70
2016,10,14,12,45,24.20
2016,10,14,12,46,24.20
2016,10,14,12,47,22.50
2016,10,14,12,48,20.90
2016,10,14,12,49,29.00
2016,10,14,12,50,20.90
2016,10,14,12,51,20.90
2016,10,14,12,52,30.60
2016,10,14,12,53,25.70
2016,10,14,12,54,27.40
2016,10,14,12,55,27.40
2016,10,14,12,56,27.40
2016,10,14,12,57,20.90
2016,10,14,12,58,25.70
2016,10,14,12,59,24.20
2016,10,14,13,00,16.10
2016,10,14,13,01,30.60
2016,10,14,13,02,22.50
2016,10,14,13,03,27.40
2016,10,14,13,04,25.70
2016,10,14,13,05,11.30
2016,10,14,13,06,19.30
2016,10,14,13,07,11.30
2016,10,14,13,08,11.30
2016,10,14,13,09,11.30
2016,10,14,13,10,20.90
2016,10,14,13,11,16.10
2016,10,14,13,12,22.50
2016,10,14,13,13,22.50
2016,10,14,13,14,43.50
2016,10,14,13,15,29.00
2016,10,14,13,16,32.20
2016,10,14,13,17,20.90
2016,10,14,13,18,16.10
2016,10,14,13,19,19.30
2016,10,14,13,20,19.30
2016,10,14,13,21,11.30
2016,10,14,13,22,14.50
2016,10,14,13,23,24.20
2016,10,14,13,24,20.90
2016,10,14,13,25,20.90
2016,10,14,13,26,16.10
2016,10,14,13,27,27.40
2016,10,14,13,28,33.80
2016,10,14,13,29,24.20
2016,10,14,13,30,30.60
2016,10,14,13,31,37.00
2016,10,14,13,32,43.50
2016,10,14,13,33,25.70
2016,10,14,13,34,45.10
2016,10,14,13,35,53.10
2016,10,14,13,36,40.20
2016,10,14,13,37,33.80
2016,10,14,13,38,64.40
2016,10,14,13,39,29.00
2016,10,14,13,40,40.20
2016,10,14,13,41,48.30
2016,10,14,13,42,19.30
2016,10,14,13,43,29.00
2016,10,14,13,44,27.40
2016,10,14,13,45,48.30
2016,10,14,13,46,51.50
2016,10,14,13,47,53.10
2016,10,14,13,48,25.70
2016,10,14,13,49,38.60
2016,10,14,13,50,48.30
2016,10,14,13,51,32.20
2016,10,14,13,52,30.60
2016,10,14,13,53,29.00
2016,10,14,13,54,40.20
2016,10,14,13,55,27.40
2016,10,14,13,56,29.00
2016,10,14,13,57,25.70
2016,10,14,13,58,35.40
2016,10,14,13,59,62.70
2016,10,14,14,00,40.20
2016,10,14,14,01,32.20
2016,10,14,14,02,53.10
2016,10,14,14,03,27.40
2016,10,14,14,04,29.00
2016,10,14,14,05,29.00
2016,10,14,14,06,37.00
2016,10,14,14,07,41.80
2016,10,14,14,08,43.50
2016,10,14,14,09,33.80
2016,10,14,14,10,40.20
2016,10,14,14,11,46.70
2016,10,14,14,12,30.60
2016,10,14,14,13,29.00
2016,10,14,14,14,35.40
2016,10,14,14,15,35.40
2016,10,14,14,16,32.20
2016,10,14,14,17,37.00
2016,10,14,14,18,35.40
2016,10,14,14,19,45.10
2016,10,14,14,20,49.90
2016,10,14,14,21,51.50
2016,10,14,14,22,49.90
2016,10,14,14,23,56.30
2016,10,14,14,24,41.80
2016,10,14,14,25,54.70
2016,10,14,14,26,33.80
2016,10,14,14,27,49.90
2016,10,14,14,28,53.10
2016,10,14,14,29,45.10
2016,10,14,14,30,32.20
2016,10,14,14,31,45.10
2016,10,14,14,32,49.90
2016,10,14,14,33,45.10
2016,10,14,14,34,46.70
2016,10,14,14,35,48.30
2016,10,14,14,36,35.40
2016,10,14,14,37,40.20
2016,10,14,14,38,33.80
2016,10,14,14,39,41.80
2016,10,14,14,40,27.40
2016,10,14,14,41,29.00
2016,10,14,14,42,43.50
2016,10,14,14,43,46.70
2016,10,14,14,44,46.70
2016,10,14,14,45,37.00
2016,10,14,14,46,35.40
2016,10,14,14,47,33.80
2016,10,14,14,48,40.20
2016,10,14,14,49,27.40
2016,10,14,14,50,64.40
2016,10,14,14,51,43.50
2016,10,14,14,52,40.20
2016,10,14,14,53,48.30
2016,10,14,14,54,41.80
2016,10,14,14,55,40.20
2016,10,14,14,56,25.70
2016,10,14,14,57,29.00
2016,10,14,14,58,51.50
2016,10,14,14,59,43.50
2016,10,14,15,00,33.80
2016,10,14,15,01,46.70
2016,10,14,15,02,41.80
2016,10,14,15,03,46.70
2016,10,14,15,04,38.60
2016,10,14,15,05,35.40
2016,10,14,15,06,38.60
2016,10,14,15,07,37.00
2016,10,14,15,08,53.10
2016,10,14,15,09,37.00
2016,10,14,15,10,25.70
2016,10,14,15,11,40.20
2016,10,14,15,12,25.70
2016,10,14,15,13,25.70
2016,10,14,15,14,22.50
2016,10,14,15,15,22.50
2016,10,14,15,16,25.70
2016,10,14,15,17,19.30
2016,10,14,15,18,20.90
2016,10,14,15,19,30.60
2016,10,14,15,20,22.50
2016,10,14,15,21,20.90
2016,10,14,15,22,30.60
2016,10,14,15,23,24.20
2016,10,14,15,24,24.20
2016,10,14,15,25,22.50
2016,10,14,15,26,29.00
2016,10,14,15,27,25.70
2016,10,14,15,28,30.60
2016,10,14,15,29,27.40
2016,10,14,15,30,24.20
2016,10,14,15,31,32.20
2016,10,14,15,32,32.20
2016,10,14,15,33,37.00
2016,10,14,15,34,25.70
2016,10,14,15,35,19.30
2016,10,14,15,36,29.00
2016,10,14,15,37,22.50
2016,10,14,15,38,33.80
2016,10,14,15,39,37.00
2016,10,14,15,40,38.60
2016,10,14,15,41,41.80
2016,10,14,15,42,32.20
2016,10,14,15,43,30.60
2016,10,14,15,44,33.80
2016,10,14,15,45,33.80
2016,10,14,15,46,32.20
2016,10,14,15,47,29.00
2016,10,14,15,48,35.40
2016,10,14,15,49,40.20
2016,10,14,15,50,25.70
2016,10,14,15,51,27.40
2016,10,14,15,52,37.00
2016,10,14,15,53,22.50
2016,10,14,15,54,25.70
2016,10,14,15,55,32.20
2016,10,14,15,56,30.60
2016,10,14,15,57,37.00
2016,10,14,15,58,25.70
2016,10,14,15,59,27.40
2016,10,14,16,00,20.90
2016,10,14,16,01,41.80
2016,10,14,16,02,41.80
2016,10,14,16,03,30.60
2016,10,14,16,04,37.00
2016,10,14,16,05,24.20
2016,10,14,16,06,22.50
2016,10,14,21,55,6.40
2016,10,14,21,56,6.40
2016,10,14,21,57,6.40
2016,10,14,21,58,6.40
2016,10,14,21,59,4.80
2016,10,14,22,00,6.40
2016,10,14,22,01,6.40
2016,10,14,22,02,6.40
2016,10,14,22,03,4.80
2016,10,14,22,04,4.80
2016,10,14,22,05,6.40
2016,10,14,22,06,6.40
2016,10,14,22,07,4.80
2016,10,14,22,08,6.40
2016,10,14,22,09,6.40
2016,10,14,22,10,4.80
2016,10,14,22,11,1.60
2016,10,14,22,12,3.20
2016,10,14,22,13,6.40
2016,10,14,22,14,6.40
2016,10,14,22,15,3.20
2016,10,14,22,16,4.80
2016,10,14,22,17,1.60
2016,10,14,22,18,1.60
2016,10,14,22,20,3.20
2016,10,14,22,21,6.40
2016,10,14,22,22,8.10
2016,10,14,22,23,6.40
2016,10,14,22,24,4.80
2016,10,14,22,25,4.80
2016,10,14,22,26,4.80
2016,10,14,22,27,4.80
2016,10,14,22,28,4.80
2016,10,14,22,29,4.80
2016,10,14,22,30,4.80
2016,10,14,22,31,4.80
2016,10,14,22,32,6.40
2016,10,14,22,33,4.80
2016,10,14,22,34,3.20
2016,10,14,22,35,3.20
2016,10,14,22,39,3.20
2016,10,14,22,40,3.20
2016,10,14,22,41,6.40
2016,10,14,22,42,8.10
2016,10,14,22,43,11.30
2016,10,14,22,44,9.60
2016,10,14,22,45,8.10
2016,10,14,22,46,8.10
2016,10,14,22,47,4.80
2016,10,14,22,48,6.40
2016,10,14,22,49,4.80
2016,10,14,22,50,6.40
2016,10,14,22,51,6.40
2016,10,14,22,52,8.10
2016,10,14,22,53,6.40
2016,10,14,22,54,4.80
2016,10,14,22,55,6.40
2016,10,14,22,56,6.40
2016,10,14,22,57,3.20
2016,10,14,22,58,4.80
2016,10,14,22,59,4.80
2016,10,14,23,00,3.20
2016,10,14,23,01,3.20
2016,10,14,23,02,4.80
2016,10,14,23,03,3.20
2016,10,14,23,04,3.20
2016,10,14,23,05,1.60
2016,10,14,23,06,3.20
2016,10,14,23,07,4.80
2016,10,14,23,08,3.20
2016,10,14,23,09,6.40
2016,10,14,23,10,6.40
2016,10,14,23,11,4.80
2016,10,14,23,12,4.80
2016,10,14,23,13,6.40
2016,10,14,23,14,4.80
2016,10,14,23,15,3.20
2016,10,14,23,16,3.20
2016,10,14,23,17,3.20
2016,10,14,23,18,1.60
2016,10,14,23,22,1.60
2016,10,14,23,23,3.20
2016,10,14,23,24,3.20
2016,10,14,23,25,4.80
2016,10,14,23,26,4.80
2016,10,14,23,27,4.80
2016,10,14,23,28,4.80
2016,10,14,23,29,4.80
2016,10,14,23,30,3.20
2016,10,14,23,31,3.20
2016,10,14,23,32,3.20
2016,10,14,23,33,1.60
2016,10,14,23,34,3.20
2016,10,14,23,35,4.80
2016,10,14,23,36,3.20
2016,10,14,23,37,1.60
2016,10,14,23,38,3.20
2016,10,14,23,39,3.20